Location: �clusier
(49.9361°N, 2.7869°E)
Time: 22:02:00
(UTC+00:00)

Aureole 1 Rocket - Pass Details

Date: 16 June 2021
Orbit: 377 x 1372 km, 73.9° (Epoch: 01 August)

Event Time Altitude Azimuth Distance (km) Brightness Sun altitude
Rises 21:26:30 0° 334° (NNW) 3,195 8.9 -10.1°
Reaches altitude 10° 21:28:37 10° 333° (NNW) 2,400 7.7 -10.3°
Maximum altitude 21:34:12 78° 248° (WSW) 1,003 4.1 -10.8°
Enters shadow 21:40:44 13° 165° (SSE) 2,825 5.8 -11.3°
